Hourly Data Report for June 23, 2021

VICTORIA UNIVERSITY CS
BRITISH COLUMBIA
Current Station Operator: ECCC - MSC

48°27'25.200" N
123°18'16.600" W
60.10 m
1018598
71783
WYJ

Download Data

Hourly Data (June 2021)
Hourly Data Report for June 23, 2021
TIME
LST
Temp Definition
°C
Dew Point Definition
°C
Rel Hum Definition
%
Precip. Amount Definition
mm

Wind Dir Definition
10's deg

Wind Spd Definition
km/h
Visibility Definition
km
Stn Press Definition
kPa
Hmdx Definition


Wind Chill Definition


Weather Definition


00:00 13.2 10.6 85 0.0 24 4   100.23     LegendNANA
01:00 12.7 11.2 91 0.0 24 5   100.25     LegendNANA
02:00 12.0 11.3 95 0.0 25 4   100.30     LegendNANA
03:00 11.2 11.1 99 0.0 25 2   100.35     LegendNANA
04:00 10.9 10.8 100 0.0 25 1   100.40     LegendNANA
05:00 10.4 10.4 100 0.0   0   100.44     LegendNANA
06:00 14.4 12.0 85 0.0 0 1   100.50     LegendNANA
07:00 14.9 11.0 78 0.0 9 3   100.55     LegendNANA
08:00 15.4 11.1 75 0.0 6 5   100.61     LegendNANA
09:00 16.1 11.2 73 0.0 12 3   100.63     LegendNANA
10:00 16.3 11.5 73 0.0 8 4   100.66     LegendNANA
11:00 16.2 11.0 72 0.0 10 5   100.72     LegendNANA
12:00 14.9 10.5 75 0.0 16 9   100.75     LegendNANA
13:00 16.2 11.2 72 0.0 15 8   100.75     LegendNANA
14:00 15.5 10.8 73 0.0 10 4   100.74     LegendNANA
15:00 16.2 11.3 73 0.0 9 4   100.72     LegendNANA
16:00 22.5 12.7 54 0.0 20 7   100.69 25   LegendNANA
17:00 23.2 12.8 52 0.0 21 6   100.65 26   LegendNANA
18:00 22.9 12.6 52 0.0 24 5   100.63 25   LegendNANA
19:00 19.0 11.6 62 0.0 6 5   100.68     LegendNANA
20:00 17.0 11.9 72 0.0 0 1   100.70     LegendNANA
21:00 13.9 11.0 83 0.0   0   100.75     LegendNANA
22:00 13.0 11.6 91 0.0   0   100.78     LegendNANA
23:00 12.7 12.1 96 0.0   0   100.79     LegendNANA

Notes on Data Quality.

Legend

  • E = Estimated
  • M = Missing
  • NA = Not Available*
  • [empty] = Indicates an unobserved value
Date modified: